Weather History for Harlan, KY

Change the Weather History Date:

Monday, February 18, 2013

  Actual Average (KLOZ) Record (KLOZ)
Temperature  
Mean Temperature 38 °F 40 °F  
Max Temperature 55 °F 51 °F 71 °F (1986)
Min Temperature 21 °F 30 °F -4 °F (1958)
Degree Days  
Heating Degree Days 27 25  
Month to date heating degree days 479  
Since 1 July heating degree days 3042  
Cooling Degree Days 0 0  
Month to date cooling degree days 0  
Year to date cooling degree days 0  
Moisture  
Dew Point 21 °F    
Average Humidity 54    
Maximum Humidity 93    
Minimum Humidity 30    
Precipitation  
Precipitation 0.00 in 0.13 in 1.30 in (1991)
Month to date precipitation 2.34  
Year to date precipitation 5.88  
Sea Level Pressure  
Sea Level Pressure 30.15 in    
Wind  
Wind Speed 2 mph (SE)    
Max Wind Speed 10 mph    
Max Gust Speed 20 mph    
Visibility 10 miles    
Events      
T = Trace of Precipitation, MM = Missing Value Source: NWS Daily Summary

Daily Weather History Graph

Daily Weather History Graph

Search for Another Location

Airport:

Trip Planner

Search our weather history database for the weather conditions in past years. The results will help you decide how hot, cold, wet, or windy it might be!

Date:

Astronomy

Feb. 18, 2013 Rise Set
Actual Time 7:18 AM EST 6:17 PM EST
Civil Twilight 6:51 AM EST 6:43 PM EST
Nautical Twilight 6:21 AM EST 7:13 PM EST
Astronomical Twilight 5:51 AM EST 7:43 PM EST
Moon 12:06 PM EST 1:52 AM EST
Length of Visible Light 11h 51m
Length of Day
10h 59m
First Quarter, 58% of the Moon is Illuminated
Feb 18
First Quarter
Feb 25
Full
Mar 4
Last Quarter
Mar 11
New
Mar 19
First Quarter

Hourly Weather History & Observations

Time (EST) Temp. Windchill Dew Point Humidity Pressure Visibility Wind Dir Wind Speed Gust Speed Precip Events Conditions
12:15 AM 24.8 °F - 17.6 °F 74% 30.21 in 10.0 mi Calm Calm - N/A   Clear
12:35 AM 23.0 °F - 17.6 °F 80% 30.22 in 10.0 mi Calm Calm - N/A   Clear
12:55 AM 23.0 °F - 17.6 °F 80% 30.22 in 10.0 mi Calm Calm - N/A   Clear
1:15 AM 23.0 °F - 17.6 °F 80% 30.22 in 10.0 mi Calm Calm - N/A   Clear
1:35 AM 23.0 °F - 19.4 °F 86% 30.23 in 10.0 mi Calm Calm - N/A   Clear
1:55 AM 23.0 °F - 17.6 °F 80% 30.22 in 10.0 mi Calm Calm - N/A   Clear
2:15 AM 23.0 °F - 17.6 °F 80% 30.22 in 10.0 mi Calm Calm - N/A   Clear
2:35 AM 23.0 °F - 17.6 °F 80% 30.23 in 10.0 mi Calm Calm - N/A   Clear
2:55 AM 23.0 °F - 19.4 °F 86% 30.23 in 10.0 mi Calm Calm - N/A   Clear
3:15 AM 21.2 °F - 19.4 °F 93% 30.23 in 10.0 mi Calm Calm - N/A   Clear
3:35 AM 21.2 °F - 19.4 °F 93% 30.23 in 10.0 mi Calm Calm - N/A   Clear
3:55 AM 23.0 °F - 17.6 °F 80% 30.23 in 10.0 mi Calm Calm - N/A   Clear
4:15 AM 21.2 °F - 17.6 °F 86% 30.23 in 10.0 mi Calm Calm - N/A   Clear
4:35 AM 21.2 °F - 19.4 °F 93% 30.24 in 10.0 mi Calm Calm - N/A   Clear
4:55 AM 21.2 °F 16.4 °F 19.4 °F 93% 30.24 in 10.0 mi East 3.5 mph - N/A   Clear
5:15 AM 21.2 °F - 19.4 °F 93% 30.24 in 10.0 mi Calm Calm - N/A   Clear
5:35 AM 23.0 °F 18.4 °F 17.6 °F 80% 30.25 in 10.0 mi ENE 3.5 mph - N/A   Clear
5:55 AM 23.0 °F - 17.6 °F 80% 30.25 in 10.0 mi Calm Calm - N/A   Clear
6:15 AM 23.0 °F - 17.6 °F 80% 30.25 in 10.0 mi Calm Calm - N/A   Clear
6:55 AM 23.0 °F - 17.6 °F 80% 30.24 in 10.0 mi Calm Calm - N/A   Clear
7:15 AM 23.0 °F 17.0 °F 15.8 °F 74% 30.25 in 10.0 mi East 4.6 mph - N/A   Clear
7:55 AM 23.0 °F 17.0 °F 17.6 °F 80% 30.25 in 10.0 mi East 4.6 mph - N/A   Clear
8:15 AM 24.8 °F - 19.4 °F 80% 30.25 in 10.0 mi Calm Calm - N/A   Clear
8:35 AM 30.2 °F - 19.4 °F 64% 30.25 in 10.0 mi Calm Calm - N/A   Clear
8:55 AM 32.0 °F - 19.4 °F 60% 30.26 in 10.0 mi Calm Calm - N/A   Clear
9:15 AM 33.8 °F 30.8 °F 19.4 °F 56% 30.25 in 10.0 mi East 3.5 mph - N/A   Clear
9:35 AM 35.6 °F 31.7 °F 17.6 °F 48% 30.25 in 10.0 mi East 4.6 mph - N/A   Clear
9:55 AM 39.2 °F 34.2 °F 17.6 °F 42% 30.25 in 10.0 mi East 6.9 mph - N/A   Clear
10:15 AM 41.0 °F - 14.0 °F 33% 30.24 in 10.0 mi Calm Calm - N/A   Clear
10:35 AM 42.8 °F 40.1 °F 14.0 °F 31% 30.24 in 10.0 mi East 4.6 mph - N/A   Clear
10:55 AM 44.6 °F 43.1 °F 17.6 °F 34% 30.23 in 10.0 mi ESE 3.5 mph - N/A   Clear
11:15 AM 44.6 °F 42.2 °F 17.6 °F 34% 30.23 in 10.0 mi SE 4.6 mph - N/A   Clear
11:35 AM 46.4 °F 42.9 °F 17.6 °F 32% 30.22 in 10.0 mi ESE 6.9 mph - N/A   Clear
11:55 AM 46.4 °F - 19.4 °F 34% 30.21 in 10.0 mi Calm Calm - N/A   Clear
12:15 PM 48.2 °F - 19.4 °F 32% 30.20 in 10.0 mi ESE 5.8 mph - N/A   Scattered Clouds
12:35 PM 50.0 °F - 21.2 °F 32% 30.19 in 10.0 mi Calm Calm - N/A   Scattered Clouds
12:55 PM 51.8 °F - 23.0 °F 33% 30.18 in 10.0 mi SSW 4.6 mph - N/A   Clear
1:15 PM 51.8 °F - 23.0 °F 33% 30.17 in 10.0 mi SW 6.9 mph - N/A   Clear
1:35 PM 51.8 °F - 21.2 °F 30% 30.16 in 10.0 mi ESE 3.5 mph - N/A   Clear
1:55 PM 51.8 °F - 21.2 °F 30% 30.14 in 10.0 mi SE 6.9 mph - N/A   Clear
2:15 PM 51.8 °F - 23.0 °F 33% 30.13 in 10.0 mi ESE 4.6 mph - N/A   Clear
2:35 PM 53.6 °F - 24.8 °F 33% 30.12 in 10.0 mi SSE 4.6 mph - N/A   Clear
3:15 PM 55.4 °F - 24.8 °F 31% 30.10 in 10.0 mi South 5.8 mph - N/A   Clear
3:35 PM 53.6 °F - 24.8 °F 33% 30.10 in 10.0 mi ESE 4.6 mph - N/A   Clear
3:55 PM 53.6 °F - 24.8 °F 33% 30.10 in 10.0 mi SSE 8.1 mph - N/A   Clear
4:15 PM 53.6 °F - 24.8 °F 33% 30.09 in 10.0 mi SE 6.9 mph - N/A   Clear
4:35 PM 53.6 °F - 24.8 °F 33% 30.09 in 10.0 mi South 4.6 mph - N/A   Clear
4:55 PM 53.6 °F - 24.8 °F 33% 30.08 in 10.0 mi SSE 8.1 mph - N/A   Clear
5:15 PM 53.6 °F - 24.8 °F 33% 30.07 in 10.0 mi South 5.8 mph - N/A   Clear
5:35 PM 51.8 °F - 26.6 °F 38% 30.06 in 10.0 mi South 5.8 mph - N/A   Clear
6:15 PM 51.8 °F - 24.8 °F 35% 30.05 in 10.0 mi SSE 9.2 mph 16.1 mph N/A   Clear
6:35 PM 50.0 °F - 24.8 °F 37% 30.04 in 10.0 mi SE 5.8 mph - N/A   Clear
6:55 PM 50.0 °F - 24.8 °F 37% 30.03 in 10.0 mi SE 5.8 mph - N/A   Clear
7:15 PM 50.0 °F - 26.6 °F 40% 30.03 in 10.0 mi SSW 3.5 mph - N/A   Scattered Clouds
7:55 PM 50.0 °F - 26.6 °F 40% 30.01 in 10.0 mi ESE 6.9 mph - N/A   Clear
8:15 PM 50.0 °F - 24.8 °F 37% 30.00 in 10.0 mi SSE 6.9 mph 16.1 mph N/A   Clear
8:35 PM 50.0 °F - 24.8 °F 37% 30.00 in 10.0 mi SSE 4.6 mph - N/A   Clear
9:15 PM 50.0 °F - 23.0 °F 35% 29.97 in 10.0 mi SE 10.4 mph 19.6 mph N/A   Clear
9:35 PM 48.2 °F - 23.0 °F 37% 29.96 in 10.0 mi ESE 8.1 mph 16.1 mph N/A   Clear
9:55 PM 48.2 °F - 23.0 °F 37% 29.96 in 10.0 mi SW 4.6 mph 17.3 mph N/A   Clear
10:15 PM 48.2 °F - 23.0 °F 37% 29.97 in 10.0 mi ESE 5.8 mph - N/A   Clear
11:15 PM 46.4 °F 42.4 °F 23.0 °F 40% 29.93 in 10.0 mi SSE 8.1 mph 18.4 mph N/A   Clear
11:35 PM 46.4 °F 42.4 °F 23.0 °F 40% 29.94 in 10.0 mi SE 8.1 mph - N/A   Clear
11:55 PM 46.4 °F - 23.0 °F 40% 29.94 in 10.0 mi Calm Calm - N/A   Clear